Temperature
25 27 27 27 27 27 26 26 26 24 23 22 23 23 22 20 19 19 19 19 19 18 17 16 15 14 14 13 13 13 13 13 12 12 13 13 13 13 13 13 13 13 13 13
26 26 26 26 26 26 26 26 25 23 22 22 23 23 23 21 20 19 19 19 19 18 17 16 15 14 14 13 13 13 13 12 12 12 12 12 12 12 12 12 12 13 13 13
27 26 26 26 25 26 25 25 25 24 22 22 22 23 23 21 20 19 18 18 18 17 17 16 15 14 14 13 13 13 12 12 12 12 12 12 12 12 12 12 12 12 13 13
26 25 25 26 25 25 25 24 23 23 23 24 22 23 24 22 21 20 19 18 18 17 16 15 15 14 14 13 13 13 12 12 12 12 12 12 12 12 12 12 12 12 12 13
25 25 25 25 24 24 24 23 23 23 23 23 23 23 24 22 22 21 20 19 18 17 16 15 15 14 13 13 12 12 12 12 12 12 12 12 12 12 12 12 12 12 12 12
24 24 25 24 23 23 23 23 23 23 23 23 23 23 23 23 22 21 20 19 17 17 16 15 14 14 13 13 12 12 12 12 12 12 12 12 12 11 12 12 12 12 12 12
24 24 23 23 24 23 24 24 24 24 23 23 22 22 23 23 21 21 20 19 18 17 16 15 15 14 13 13 12 12 12 12 12 12 12 12 11 11 12 11 12 12 12 12
25 24 24 24 24 24 24 24 24 23 23 24 22 22 24 21 20 19 18 18 17 17 16 15 14 14 13 13 12 12 12 12 12 12 12 11 11 11 11 11 11 12 12 12
26 24 23 22 23 24 23 24 23 23 23 23 24 23 23 21 20 19 19 18 17 17 16 15 14 14 13 13 12 12 12 12 11 11 11 11 11 11 11 11 12 12 12 12
26 24 23 22 23 21 23 23 23 23 22 23 23 23 23 23 22 21 20 19 18 17 16 15 14 14 13 13 12 12 12 11 11 11 11 11 11 11 11 11 11 11 12 12
25 25 23 23 23 23 22 22 22 22 22 22 23 23 23 22 22 21 20 19 18 17 16 15 15 14 13 13 13 12 12 12 11 11 11 11 11 11 11 11 11 11 11 12
24 25 24 23 22 22 23 23 23 23 22 21 22 23 22 22 21 20 20 19 18 17 16 15 15 14 14 13 13 13 12 12 11 11 11 11 11 11 11 11 11 11 11 11
23 24 24 23 22 21 22 21 21 22 22 22 22 23 22 22 21 20 19 19 18 17 16 15 15 14 14 13 13 13 12 12 12 11 11 11 11 11 11 11 11 11 11 11
22 25 24 24 24 23 22 21 20 21 22 22 22 23 23 23 22 21 20 18 18 17 16 16 15 15 14 14 13 13 12 12 12 11 11 11 11 11 11 11 11 11 11 11
23 24 24 23 22 22 22 22 21 21 22 22 23 22 23 23 22 21 19 18 18 17 16 16 15 15 14 14 13 13 12 12 12 11 11 11 11 11 11 11 11 11 11 11
23 23 23 23 22 22 22 22 21 21 21 22 22 22 23 22 21 20 20 19 18 17 17 16 16 15 15 14 14 13 13 12 12 11 11 11 11 11 11 11 11 11 11 11
23 23 23 23 22 22 23 23 22 22 22 22 22 23 23 22 22 21 20 19 18 18 17 16 16 16 15 15 14 13 13 12 12 12 11 11 11 11 11 11 11 11 11 11
23 23 23 23 23 22 24 23 23 23 23 23 23 23 22 21 21 20 19 19 19 18 17 16 16 16 15 15 14 13 13 13 12 12 11 11 11 11 11 11 11 11 11 11
22 22 23 23 23 23 23 23 22 23 23 24 23 23 22 20 20 21 20 19 18 18 17 16 16 16 15 15 14 14 13 13 12 12 12 11 11 11 11 11 11 11 11 11
20 22 23 22 22 23 24 23 22 23 23 23 23 22 22 21 23 23 20 19 18 17 17 16 16 15 15 15 14 14 14 13 13 12 12 12 11 11 11 11 11 11 11 11
21 21 22 22 23 24 23 21 21 23 24 22 22 22 21 22 23 20 19 18 18 17 17 17 16 15 15 15 14 14 14 14 13 13 12 12 12 12 11 11 11 11 11 11
23 22 22 22 22 23 21 21 23 23 21 21 21 21 20 20 19 19 18 18 18 18 17 17 16 16 15 15 15 14 14 14 13 13 13 12 12 12 12 12 11 11 11 11
23 24 24 23 23 21 18 20 19 18 19 20 20 19 19 19 19 18 18 18 18 18 17 17 16 16 15 15 15 15 14 14 14 13 13 13 12 12 12 12 11 11 11 11
23 20 22 22 22 19 18 17 16 16 17 18 18 18 18 19 18 18 18 18 18 18 17 17 17 16 16 15 15 15 15 14 14 13 13 13 13 12 12 12 12 12 11 11
23 20 22 23 22 19 17 16 15 16 16 17 17 17 18 18 18 18 18 18 18 17 17 17 17 16 16 16 15 15 15 15 14 14 13 13 13 13 13 12 12 12 12 12
21 21 22 24 22 22 19 15 15 16 16 17 17 17 17 17 17 17 17 17 17 17 17 17 17 17 16 16 15 15 15 15 14 14 14 14 13 13 13 13 12 13 12 12
Wind_Speed
7 8 8 7 6 4 4 5 5 1 1 6 9 9 7 7 9 8 7 6 5 4 4 5 7 8 9 10 10 10 11 11 10 8 8 8 8 8 7 6 8 8 8 8
8 8 4 3 4 4 4 5 4 1 1 4 7 9 7 8 9 8 8 7 5 5 5 5 7 8 9 10 10 11 11 11 10 9 8 7 8 7 7 6 7 8 8 7
9 5 5 6 5 4 3 4 4 2 2 4 6 7 6 6 8 8 8 7 6 5 6 7 8 9 9 10 10 9 11 11 10 10 8 8 7 7 6 7 6 7 7 7
5 4 6 5 3 3 2 1 2 3 5 3 3 6 1 3 6 8 8 7 5 4 4 6 7 8 9 9 9 10 10 10 10 10 9 10 8 8 9 8 7 8 7 6
5 5 5 4 2 1 2 2 1 4 6 6 4 6 1 2 3 3 5 6 4 3 4 5 7 7 8 8 8 9 10 10 10 10 9 9 8 8 7 8 8 8 6 6
6 3 2 3 4 3 5 4 3 4 5 4 1 4 3 0 2 1 1 3 4 3 3 5 5 6 7 7 8 8 9 9 10 9 9 9 10 10 9 9 8 7 6 5
6 5 4 3 5 4 4 5 4 4 3 1 1 4 4 3 2 3 2 2 2 3 4 5 6 6 7 8 8 8 9 9 9 10 10 9 10 10 9 9 8 8 6 5
8 6 4 2 1 2 2 4 4 4 3 2 3 4 2 1 2 3 4 3 3 3 3 4 5 6 6 7 7 8 8 9 9 9 10 9 9 8 7 8 8 7 6 6
5 5 5 3 2 1 2 1 3 4 3 4 2 2 2 2 4 5 5 5 5 4 3 4 4 5 6 7 7 7 8 8 8 9 9 9 10 9 9 9 8 7 7 7
2 4 6 5 4 4 2 2 3 3 3 3 2 3 1 1 2 3 5 6 5 4 4 3 4 5 5 5 6 6 7 7 7 8 8 8 9 9 9 8 9 9 9 8
3 4 6 6 5 3 4 3 2 2 3 4 3 1 1 2 3 4 4 4 5 5 4 4 4 4 5 5 5 5 6 6 7 7 8 8 9 9 9 8 9 9 8 8
1 3 4 4 2 1 3 3 4 4 2 3 4 2 3 3 5 6 6 4 4 5 4 4 4 4 4 5 5 5 6 6 6 7 7 8 8 8 9 9 10 9 9 8
4 4 4 5 5 5 5 4 4 3 3 4 4 1 3 3 5 6 6 5 5 5 5 5 4 4 4 4 4 5 5 5 5 6 7 7 8 9 9 10 10 10 9 8
3 5 6 4 1 4 5 7 7 7 4 4 6 8 6 7 6 5 5 6 6 6 6 5 5 4 4 4 4 4 4 4 5 5 6 7 8 8 9 9 9 9 9 8
4 5 4 2 1 3 5 7 10 10 8 6 7 9 11 9 6 5 4 5 6 7 7 6 6 5 4 4 4 3 4 4 4 5 5 6 7 7 8 9 9 9 8 8
4 4 4 5 4 5 7 9 10 11 9 10 12 11 6 4 4 4 4 5 7 7 7 6 6 5 4 4 3 3 3 3 4 4 5 5 6 7 7 8 9 9 8 8
5 5 5 5 4 5 8 9 11 7 8 8 7 5 4 5 5 5 4 5 7 6 6 6 6 5 4 3 3 3 3 3 3 4 4 5 5 6 7 8 8 8 8 8
5 5 4 3 5 6 2 3 5 7 6 8 9 9 7 7 6 6 5 6 6 6 6 6 6 5 4 3 2 2 2 2 3 3 4 4 5 5 6 7 7 8 7 7
3 5 4 4 5 4 3 4 5 5 3 3 5 5 4 4 5 3 2 5 5 5 5 5 5 5 4 3 3 3 2 2 3 3 3 3 4 5 5 6 7 7 7 7
2 5 5 5 5 4 4 5 4 4 4 2 3 3 2 3 2 2 2 2 4 5 5 5 5 5 5 4 4 4 3 3 3 3 3 3 3 4 5 5 6 5 5 5
7 6 8 8 6 4 3 5 5 5 2 2 1 2 3 3 3 3 1 1 3 5 5 6 6 5 5 4 5 5 4 4 3 2 3 3 3 3 4 4 4 4 4 5
9 7 7 7 7 5 6 7 6 1 2 1 2 3 3 4 4 3 2 2 3 4 5 6 6 6 5 5 6 6 5 4 3 4 4 4 4 4 3 4 4 4 4 4
8 6 5 6 2 4 3 3 1 3 4 4 4 3 3 4 3 2 2 2 3 4 5 6 6 6 6 6 7 7 6 5 5 5 5 5 5 4 4 4 4 4 3 4
7 4 5 5 5 4 3 2 2 3 5 5 4 3 3 2 2 1 1 1 2 3 4 5 6 7 7 7 7 8 6 6 7 7 7 6 6 5 4 4 4 4 4 3
6 8 7 7 5 6 5 3 1 1 1 1 0 0 0 1 1 2 1 1 1 1 2 3 5 6 7 6 7 7 7 7 8 8 8 7 6 6 6 5 5 5 4 4
8 9 8 7 8 7 7 5 1 1 1 2 2 3 3 2 2 2 2 2 2 2 2 2 3 5 6 6 6 6 6 8 9 8 8 7 6 6 6 6 6 8 8 6
Wind_Direction
174 196 205 206 223 284 284 275 283 311 172 234 252 261 239 211 219 229 235 247 271 303 326 342 343 344 342 346 346 346 344 344 342 339 333 330 327 322 317 311 308 299 291 286
178 197 182 165 177 216 245 267 275 177 181 254 273 271 252 225 229 238 248 257 274 299 315 338 339 344 346 347 347 347 347 345 344 340 329 320 319 315 318 316 314 310 300 292
195 146 147 164 172 211 240 280 291 272 198 221 282 269 226 217 226 235 244 256 276 296 316 335 341 344 345 349 347 345 345 342 344 340 334 331 329 320 327 327 323 319 311 300
142 131 162 173 166 260 243 45 247 236 257 281 285 303 194 204 230 236 240 244 262 285 309 329 337 342 345 347 345 343 344 343 344 340 340 340 334 330 328 324 320 319 315 307
133 141 169 165 99 300 82 105 208 251 268 276 246 279 282 159 263 249 238 239 251 275 308 324 334 339 342 345 345 342 341 343 345 343 342 334 336 331 328 327 327 326 324 316
110 102 70 103 94 99 139 161 168 217 250 261 279 277 299 48 340 352 229 228 238 264 302 318 329 332 340 344 342 342 342 346 345 342 343 343 339 336 334 335 332 328 325 321
138 126 108 139 145 144 211 260 260 235 233 271 101 269 288 23 306 274 274 254 241 263 298 319 328 331 338 339 341 341 344 345 347 346 347 348 343 336 334 334 332 328 325 324
179 163 134 147 257 206 217 284 299 305 310 313 212 261 333 53 267 247 247 246 243 258 292 311 321 324 328 333 338 342 342 343 345 345 347 346 344 338 335 334 330 326 320 316
197 144 113 86 85 235 200 231 331 290 289 280 244 266 266 175 230 232 237 238 246 258 277 296 313 320 325 329 335 338 337 341 345 344 344 346 346 343 339 336 333 330 326 320
200 158 150 142 147 58 354 149 218 262 291 290 279 265 298 254 292 251 245 246 247 247 261 281 302 315 322 326 328 334 337 338 341 342 344 344 344 345 343 340 343 340 335 332
223 198 162 183 218 210 173 192 228 253 283 295 311 51 75 309 313 299 280 256 242 240 251 273 294 310 316 316 320 330 337 340 342 342 344 345 350 350 350 352 349 344 341 340
187 238 198 174 125 347 247 238 228 263 253 263 286 296 118 262 284 281 278 258 233 233 241 259 281 295 304 313 320 330 339 341 341 339 341 346 348 351 355 357 353 350 349 346
168 214 206 182 182 190 208 204 221 251 258 246 263 294 129 271 283 270 261 253 230 225 233 247 266 285 298 306 312 323 334 337 337 337 338 343 351 354 354 355 356 353 352 350
223 228 252 277 64 168 193 194 204 219 247 257 252 286 306 313 309 290 257 241 229 226 230 242 258 273 285 295 303 316 329 335 335 335 337 345 350 351 350 353 355 355 354 351
229 232 223 233 178 211 224 209 205 223 249 267 285 291 300 315 314 303 265 232 224 226 230 237 248 267 279 288 294 305 319 328 332 333 339 345 347 350 352 355 356 358 356 356
216 218 203 209 206 228 241 231 221 231 247 257 276 287 293 304 287 275 253 228 227 228 229 232 239 253 268 281 293 301 310 322 327 333 341 346 344 352 354 357 359 0 0 1
191 208 222 217 189 233 245 226 211 217 224 243 268 294 317 295 291 284 271 237 235 231 226 228 232 240 256 276 294 301 307 313 320 333 341 345 348 353 355 358 0 0 3 7
197 204 223 228 208 231 112 114 194 221 242 240 261 283 289 287 294 282 265 250 238 225 220 220 224 226 235 243 251 273 278 286 311 330 338 345 347 350 353 359 0 359 1 5
238 206 217 229 228 238 196 185 190 208 218 223 255 285 293 288 269 243 226 234 235 219 212 212 216 217 225 232 241 253 264 273 290 312 325 337 340 343 347 354 357 359 357 360
181 223 228 222 234 224 150 136 174 218 202 145 245 294 284 250 281 54 70 200 212 204 201 203 205 218 224 224 226 248 266 274 280 289 301 316 326 328 333 339 344 351 352 352
189 203 221 226 236 238 131 144 175 212 122 90 265 283 244 251 335 21 10 240 209 203 202 204 210 221 228 225 227 246 262 273 274 266 275 284 293 305 315 321 327 332 341 346
199 196 204 208 220 211 138 168 201 26 37 311 286 282 265 273 297 292 278 252 216 208 206 210 218 224 224 223 231 246 256 262 247 241 252 263 274 288 297 300 309 320 326 329
214 216 210 210 208 85 158 202 332 317 286 290 288 287 275 272 279 281 271 251 228 221 214 214 224 231 229 224 231 248 251 240 232 234 244 254 258 265 276 286 293 302 310 320
198 195 210 221 223 191 177 203 271 279 273 287 286 277 264 266 304 315 298 272 238 231 224 223 228 235 239 235 232 244 250 237 237 241 246 249 253 257 260 265 275 285 297 306
189 183 208 224 191 178 188 182 285 302 275 269 301 87 293 302 1 7 2 354 322 273 244 236 242 250 256 251 245 245 246 242 245 249 249 250 252 258 263 258 257 266 271 282
194 195 204 220 190 188 172 153 156 148 108 90 100 88 68 54 39 33 29 19 1 340 304 272 267 269 271 267 262 258 249 244 250 256 256 253 250 249 253 259 252 225 238 240
Height
1534 1533 1533 1534 1534 1536 1537 1539 1541 1544 1549 1549 1547 1546 1549 1553 1555 1556 1556 1557 1557 1558 1558 1556 1555 1552 1550 1547 1544 1541 1537 1534 1530 1527 1523 1520 1518 1515 1513 1511 1509 1507 1506 1506
1533 1533 1533 1534 1536 1537 1538 1540 1542 1547 1550 1548 1546 1545 1545 1550 1552 1553 1554 1555 1555 1556 1556 1555 1553 1551 1548 1546 1542 1539 1536 1533 1529 1526 1522 1519 1516 1513 1510 1508 1506 1505 1503 1502
1527 1533 1535 1536 1537 1538 1539 1541 1542 1546 1549 1549 1548 1542 1542 1546 1550 1552 1553 1554 1554 1555 1554 1553 1552 1550 1547 1544 1541 1538 1535 1532 1529 1525 1521 1518 1515 1512 1509 1507 1504 1502 1500 1499
1531 1535 1536 1536 1538 1538 1541 1543 1545 1547 1547 1543 1548 1546 1537 1541 1546 1548 1550 1551 1552 1553 1553 1552 1551 1549 1546 1544 1540 1538 1534 1531 1528 1524 1521 1517 1514 1511 1508 1505 1502 1500 1498 1496
1534 1536 1536 1537 1540 1540 1543 1546 1545 1546 1545 1545 1545 1546 1536 1541 1541 1543 1546 1549 1551 1552 1551 1551 1549 1547 1545 1542 1539 1537 1534 1531 1527 1524 1520 1516 1513 1510 1506 1503 1500 1498 1496 1494
1536 1539 1538 1539 1544 1544 1546 1546 1546 1545 1543 1548 1545 1547 1541 1536 1539 1542 1545 1547 1549 1550 1550 1549 1548 1546 1544 1542 1539 1536 1532 1529 1526 1523 1520 1516 1512 1509 1506 1502 1499 1496 1494 1492
1537 1538 1541 1542 1543 1545 1543 1543 1547 1547 1548 1546 1546 1548 1541 1537 1541 1543 1544 1546 1547 1548 1548 1548 1546 1545 1543 1540 1538 1535 1532 1529 1526 1522 1519 1516 1512 1508 1505 1502 1498 1495 1493 1491
1535 1541 1540 1541 1540 1541 1542 1541 1549 1553 1549 1543 1546 1545 1536 1539 1542 1543 1544 1545 1546 1546 1547 1546 1545 1543 1542 1539 1537 1534 1531 1528 1525 1522 1519 1515 1511 1508 1504 1501 1498 1495 1492 1490
1528 1539 1543 1543 1543 1541 1542 1542 1543 1544 1546 1548 1539 1538 1534 1538 1540 1541 1543 1544 1544 1545 1545 1544 1543 1542 1540 1538 1536 1533 1530 1527 1524 1521 1518 1515 1511 1507 1504 1501 1497 1494 1492 1489
1524 1536 1541 1544 1544 1547 1542 1543 1545 1546 1551 1547 1542 1539 1536 1534 1535 1537 1539 1541 1542 1543 1543 1543 1542 1541 1539 1537 1535 1532 1529 1527 1524 1521 1518 1514 1510 1507 1503 1500 1497 1493 1491 1488
1526 1531 1542 1542 1542 1540 1546 1546 1545 1545 1547 1549 1547 1540 1531 1533 1535 1536 1537 1538 1540 1541 1541 1541 1541 1539 1538 1536 1534 1532 1529 1526 1523 1521 1517 1514 1511 1507 1503 1500 1496 1493 1490 1487
1530 1528 1534 1538 1542 1543 1541 1541 1543 1546 1546 1548 1547 1541 1532 1534 1535 1536 1536 1536 1538 1539 1539 1539 1539 1538 1537 1535 1533 1531 1529 1526 1523 1520 1517 1514 1511 1507 1504 1500 1497 1493 1490 1487
1531 1530 1537 1542 1545 1545 1543 1544 1544 1544 1544 1545 1548 1539 1532 1533 1533 1533 1534 1534 1535 1536 1537 1537 1537 1536 1535 1534 1532 1530 1528 1525 1522 1519 1517 1514 1511 1508 1504 1501 1497 1493 1490 1487
1532 1527 1532 1537 1534 1535 1540 1544 1545 1543 1541 1541 1541 1534 1528 1527 1529 1530 1531 1532 1533 1534 1535 1535 1535 1535 1533 1532 1531 1529 1527 1524 1521 1519 1516 1514 1511 1508 1504 1501 1497 1494 1490 1488
1531 1527 1529 1532 1534 1535 1535 1538 1541 1541 1536 1538 1532 1531 1527 1525 1527 1528 1528 1529 1530 1531 1532 1532 1533 1533 1532 1531 1529 1528 1526 1523 1521 1519 1516 1514 1511 1508 1505 1502 1498 1495 1491 1488
1530 1529 1531 1533 1534 1535 1535 1534 1536 1537 1536 1534 1532 1529 1523 1525 1526 1526 1526 1527 1528 1528 1529 1530 1530 1530 1530 1529 1528 1527 1525 1523 1520 1518 1516 1513 1511 1508 1505 1502 1499 1495 1492 1489
1527 1528 1531 1529 1533 1534 1532 1524 1528 1530 1529 1529 1528 1524 1522 1523 1524 1524 1524 1524 1525 1526 1527 1527 1528 1528 1528 1528 1527 1525 1523 1522 1520 1518 1516 1513 1511 1508 1506 1503 1500 1496 1494 1491
1527 1527 1528 1529 1532 1539 1523 1521 1522 1525 1524 1523 1523 1522 1522 1523 1523 1522 1522 1522 1523 1523 1524 1525 1526 1526 1526 1526 1525 1523 1522 1521 1519 1517 1515 1513 1511 1508 1506 1503 1500 1498 1495 1492
1528 1528 1529 1528 1529 1525 1521 1520 1522 1523 1521 1520 1520 1520 1521 1521 1520 1519 1519 1520 1520 1521 1522 1523 1524 1524 1524 1524 1523 1523 1522 1520 1518 1517 1515 1513 1511 1509 1506 1504 1502 1499 1496 1494
1531 1528 1527 1530 1531 1528 1518 1518 1520 1522 1521 1519 1519 1519 1519 1520 1515 1516 1519 1518 1518 1519 1520 1521 1521 1522 1522 1522 1522 1521 1520 1519 1518 1516 1514 1513 1511 1509 1507 1505 1502 1500 1497 1495
1526 1527 1527 1527 1526 1517 1514 1519 1521 1524 1519 1518 1518 1518 1518 1518 1516 1518 1517 1517 1517 1518 1518 1519 1520 1520 1521 1520 1520 1520 1519 1518 1517 1515 1513 1512 1510 1508 1507 1504 1502 1500 1498 1496
1515 1520 1522 1522 1525 1520 1515 1517 1516 1515 1516 1517 1517 1517 1517 1517 1517 1516 1516 1516 1516 1516 1516 1517 1518 1518 1518 1518 1518 1518 1517 1516 1514 1513 1512 1510 1509 1508 1506 1504 1502 1501 1498 1497
1511 1509 1509 1511 1513 1513 1514 1514 1515 1515 1516 1516 1516 1516 1515 1515 1515 1514 1514 1514 1514 1514 1514 1515 1515 1516 1516 1515 1515 1515 1515 1514 1512 1511 1510 1509 1508 1506 1505 1504 1502 1501 1499 1497
1507 1511 1510 1509 1508 1512 1513 1513 1513 1513 1513 1513 1513 1513 1513 1513 1513 1513 1512 1512 1512 1512 1512 1512 1513 1513 1513 1513 1513 1512 1512 1511 1510 1509 1508 1507 1506 1505 1504 1502 1501 1500 1498 1497
1501 1507 1506 1504 1506 1510 1511 1511 1511 1511 1511 1511 1511 1511 1511 1511 1511 1511 1511 1510 1510 1510 1510 1510 1510 1510 1511 1510 1510 1509 1509 1508 1508 1507 1506 1505 1504 1503 1502 1500 1499 1498 1496 1495
1499 1500 1500 1497 1499 1502 1506 1508 1508 1509 1509 1510 1510 1510 1509 1509 1509 1509 1509 1508 1508 1508 1508 1507 1507 1507 1507 1507 1507 1506 1505 1505 1504 1504 1504 1503 1501 1500 1499 1498 1496 1495 1494 1492